Weather Service Report


343 
FPUS83 KFGF 280731
OPUFGF
PRAIRIE TO PINES WEATHER ROUNDUP
NATIONAL WEATHER SERVICE EASTERN NORTH DAKOTA/GRAND FORKS ND
200 AM CDT FRI AUG 28 2015

 **SATELLITE DATA USED TO AUGMENT SKY COVER AT AUTOMATED STATIONS**
 *****  WEATHER ACROSS EASTERN NORTH DAKOTA  *****
  
CITY           SKY/WX    TMP DP  RH WIND       PRES   REMARKS
GRAND FORKS    CLEAR     64  62  93 S6        29.86S                  
GRAND FORKS AF CLEAR     64  63  97 S8        29.86F                  
GRAND CITY NWS   N/A     64 N/A N/A S6          N/A                   
BUXTON         NOT AVBL                                               
DEVILS LAKE    CLEAR     70  59  68 SW12      29.85S                  
FARGO          CLEAR     68  64  87 S9        29.88F                  
WAHPETON ARPT  SUNNY     63  61  94 SE7       29.93R                  
$$

 *****  WEATHER ACROSS CENTRAL AND WESTERN NORTH DAKOTA  *****
  
CITY           SKY/WX    TMP DP  RH WIND       PRES   REMARKS
JAMESTOWN      CLEAR     65  61  87 SW5       29.90R                  
BISMARCK       CLEAR     64  59  83 VRB3      29.92S                  
MINOT          PTCLDY    72  60  66 SW16      29.82F                  
MINOT AFB      PTCLDY    67  66  94 SW12      29.80F                  
GARRISON         N/A     64  59  83 S6        29.87F                  
WILLISTON      CLEAR     67  62  84 S5        29.85F                  
DICKINSON      MOCLDY    63  56  78 S12       29.90F                  
HETTINGER      MOCLDY    63  57  81 S6        29.96F                  
$$

 *****  OTHER OBSERVATIONS NORTHEAST NORTH DAKOTA  *****
  
CITY           SKY/WX    TMP DP  RH WIND       PRES   REMARKS
WALHALLA       FAIR      63  63 100 MISG      29.81F                  
LANGDON        FAIR      64  64 100 S9        29.84F                  
CAVALIER       FAIR      63  63 100 S6        29.82F                  
GRAFTON        FAIR      63  63 100 S3        29.85S                  
CANDO          FAIR      63  61  94 SW8       29.84F                  
FORT TOTTEN      N/A     67  64  90 S7        29.95S                  
ROLLA          CLOUDY    66  66 100 SW13      29.83F                  
RUGBY          FAIR      64  64 100 S10       29.82F                  
 ***** THE ABOVE OBSERVATIONS ARE NON NWS ARE NOT QUALITY
        CONTROLLED AND MAY MIS-REPORT RAIN FOR SNOW...
$$

 *****  OTHER OBSERVATIONS SOUTHEAST NORTH DAKOTA *****
  
CITY           SKY/WX    TMP DP  RH WIND       PRES   REMARKS
COOPERSTOWN    NOT AVBL                                               
VALLEY CITY    FAIR      63  63 100 CALM      29.90S                  
OAKES          FOG       59  59 100 S7        29.92R VSB 3/4          
GWINNER          N/A     63  63 100 CALM      29.92R                  
BUFFALO        NOT AVBL                                               
WYNDMERE         N/A     63  63 100 S2          N/A                   
 ***** THE ABOVE OBSERVATIONS ARE NON NWS ARE NOT QUALITY
       CONTROLLED AND MAY MIS-REPORT RAIN FOR SNOW...
$$

  *****  WEATHER ACROSS NORTHERN MINNESOTA  *****     
  
CITY           SKY/WX    TMP DP  RH WIND       PRES   REMARKS
FLAG ISLAND    PTCLDY    64  63  94 CALM      29.86S FOG              
WARROAD        CLEAR     61  55  82 SW5       29.88R                  
ROSEAU         CLEAR     61  54  77 CALM      29.87S HAZE             
HALLOCK        CLEAR     61  59  94 SE7       29.84S                  
THF RVR FALLS  CLEAR    N/A N/A N/A S6        29.88S                  
HALSTAD        NOT AVBL                                               
FOSSTON        MOCLDY    61  61 100 S5        29.91F                  
BAUDETTE       CLEAR     61  60  97 S6        29.88F                  
WASKISH        CLEAR     64  63  94 S3        29.90F                  
CROOKSTON      CLEAR     64  64 100 S7        29.88S                  
$$
  *****  WEATHER ACROSS CENTRAL AND WEST MINNESOTA  *****     
  
CITY           SKY/WX    TMP DP  RH WIND       PRES   REMARKS
BEMIDJI        CLEAR     62  61  97 S3        29.92S                  
PARK RAPIDS    CLOUDY    64  62  93 S8        29.94S                  
WADENA         FOG       63  63 100 S8        29.95R VSB 1/2          
DETROIT LAKES  CLEAR     63  63 100 S5        29.93S                  
MOORHEAD       CLEAR     64  63  94 S6        29.90S                  
FERGUS FALLS   PTCLDY    64  64 100 S8        29.94R                  
ELBOW LAKE     FAIR      63  63  99 SE8       29.93F                  
MORRIS MN      CLEAR     63  61  94 SE7       29.94F FOG              
STAPLES        CLOUDY    63  61  94 S10       29.96S FOG              
WHEATON        CLEAR     57  57 100 SE5       29.94F                  
$$
  *****  WEATHER ELSEWHERE ACROSS MINNESOTA  *****     
  
CITY           SKY/WX    TMP DP  RH WIND       PRES   REMARKS
DULUTH         CLEAR     59  54  83 S5        29.98S                  
INTRNTL FALLS  CLOUDY    62  60  93 CALM      29.91S                  
ELY            PTCLDY    57  55  94 CALM      29.96F                  
CLOQUET        CLOUDY    59  54  82 CALM      29.98S                  
BRAINERD       CLOUDY    64  60  87 S8        29.98R                  
HIBBING        PTCLDY    53  52  96 CALM      29.96S FOG              
ALEXANDRIA     CLOUDY    63  63 100 S8        29.97S FOG              
SAINT CLOUD    PTCLDY    60  59  96 S7        29.99S                  
MINNEAPOLIS    CLOUDY    66  60  81 S7        30.01S                  
$$

  *****  WEATHER ACROSS SOUTH DAKOTA  *****
  
CITY           SKY/WX    TMP DP  RH WIND       PRES   REMARKS
SIOUX FALLS    CLOUDY    66  64  93 SE12      29.94S                  
BROOKINGS      CLOUDY    64  61  88 SE9       29.96F                  
WATERTOWN      MOCLDY    65  62  90 S9        29.94F                  
HURON          CLOUDY    66  64  93 E6        29.91F                  
SISSETON         N/A     62  61  96 S6        29.92S                  
ABERDEEN       FOG       60  59  96 S6        29.93R VSB 1/2          
MITCHELL       CLOUDY    67  66  97 SE6       29.91S                  
PIERRE         CLOUDY    67  67 100 N6        29.91S FOG              
MOBRIDGE       PTCLDY    60  60 100 CALM      29.92S                  
RAPID CITY     CLEAR     61  58  90 SW7       30.00F                  
$$

  *****  SOME WEATHER IN NEARBY STATES *****
  
CITY           SKY/WX    TMP DP  RH WIND       PRES   REMARKS
GLASGOW MT     PTCLDY    65  54  67 SW3       29.87S                  
GREAT FALLS MT CLOUDY    66  36  32 SW10      30.02S HAZE             
CHEYENNE WY    LGT RAIN  59  54  83 N10       30.25S                  
SCOTTSBLUFF NE PTCLDY    59  55  87 N7        30.06F                  
OMAHA NE       TSTM      69  67  93 SE16G32   29.92F FOG              
DES MOINES IA  CLOUDY    66  59  78 SE9       30.02R                  
DAVENPORT IA   CLOUDY    63  59  87 SE5       30.10R                  
CHICAGO IL     PTCLDY    59  56  89 SE3       30.12F                  
EAU CLAIRE WI  MOCLDY    62  58  86 S3        30.03S                  
LA CROSSE WI   MOCLDY    66  60  81 S9        30.05S                  
$$

  *****  SOME NATIONAL WEATHER *****
  
CITY           SKY/WX    TMP DP  RH WIND       PRES   REMARKS
LA GUARDIA NY  PTCLDY    68  55  63 NW3       30.12S                  
RALEIGH NC     PTCLDY    63  60  90 CALM      30.12F                  
ATLANTA GA     PTCLDY    71  65  81 E8        30.05F                  
NEW ORLEANS LA CLEAR     73  62  68 CALM      29.97S                  
OKLAHOMA CITY  CLOUDY    76  63  64 S13       29.98R                  
ALBUQUERQUE NM MOCLDY    67  53  61 SE7       30.20F                  
SALT LAKE CITY CLEAR     74  44  34 SE9       30.16S                  
LOS ANGELES CA CLEAR     75  67  76 CALM      29.91S                  
BOISE ID       PTCLDY    76  36  23 SE9       30.01F                  
SEATTLE WA     CLOUDY    71  44  37 SW7       29.97F                  
$$

*** WEATHER ACROSS MANITOBA...SASKATCHEWAN AND ONTARIO ***
                ***ONTARIO***
  
CITY           SKY/WX    TMP DP  RH WIND       PRES   REMARKS
GERALDTON      CLOUDY    50  46  87 SW3       29.94F                  
THUNDER BAY    CLEAR     48  46  93 NW3       29.97F                  
SIOUX LOOKOUT  MOCLDY    55  54  94 S5        29.89F                  
TORONTO        PTCLDY    57  52  82 N5        30.16F                  
BIG TROUT LK   MOCLDY    52  52 100 SE2       29.85F                  
PICKLE LAKE    NOT AVBL                                               
DRYDEN         CLEAR     61  57  88 S7        29.88F                  
KENORA         MOCLDY    61  57  88 S5        29.88                   
$$      
                *** MANITOBA***
  
CITY           SKY/WX    TMP DP  RH WIND       PRES   REMARKS
BRANDON        TSTM      63  59  88 N26G32    29.86R                  
DAUPHIN        MOCLDY    63  61  94 N3        29.74F                  
ISLAND LAKE    MOCLDY    57  57 100 CALM      29.82F                  
PILOT MOUND      N/A     61  61 100 SE3         N/A                   
THE PAS        CLOUDY    59  57  94 S3        29.75F                  
THOMPSON       MOCLDY    45  43  93 CALM      29.78F                  
WINNIPEG       CLOUDY    66  61  82 S12       29.81F                  
LYNN LAKE      CLEAR     52  48  87 MISG      29.73F                  
CHURCHILL      PTCLDY    48  48 100 NW3       29.75S                  
$$
                ***SASKATCHEWAN***
  
CITY           SKY/WX    TMP DP  RH WIND       PRES   REMARKS
ESTEVAN        MOCLDY    66  63  88 NW9       29.84R                  
KINDERSLEY     MOCLDY    57  54  88 VRB2      29.83                   
LLOYDMINSTER   CLOUDY    66  57  72 SW12G18   29.81R                  
PRINCE ALBERT  FOG       52  52 100 CALM      29.78R VSB 1/2          
REGINA         PTCLDY    57  55  94 NW6       29.81R                  
YORKTON        PTCLDY    61  57  88 CALM      29.76S                  
N. BATTLEFORD  CLOUDY    55  55 100 CALM      29.82S                  

Return to Home page


Western Regional Climate Center, wrcc@dri.edu